STARLINK-34380, 64307

Orbit data source: Space-Track

STARLINK-34380, 64307 is a payload satellite owned by SpaceX/Seattle (US) in LEO that was launched on Sun, 08 Jun 2025 UTC via an FALCON 9 launch vehicle from the Air Force Western Test Range (AFWTR). Payload-class satellites include a variety of spacecraft equipped with specific instruments for various scientific and technological missions. These include communications satellites like Starlink; space stations such as the ISS; scientific satellites like the Hubble; Earth observation satellites from companies like Planet Labs, Umbra, and HawkEye 360; GPS; miniature CubeSats for education and research; and military/defense satellites.

Loading next visibility...
Identifier
64307, 2025-123S
Orbit
LEO
Country
Flag of USUS
Related business
Manufacturer
SpaceX/Seattle
Mission
Operational Commercial Communications
Bus & Motor
STARLINK V2MO, Unknown motor
Mass
575 kg wet, ~530 kg dry
Launch date (UTC)
2025-06-08 (10 months ago)
Launch vehicle
FALCON 9
Launch site
Air Force Western Test Range (AFWTR)
Object type
Payload
Rocket body
Debris
Shape & HBR
Box + 2 Pan, 17.7 m
Radar Cross Section
36.964 m², Large (>1 m²)

Expand to show TLE details & history
Last TLE update: 21 hours ago

TLE from 21 hours ago
0 STARLINK-34380
1 64307U 25123S   26093.51846087  .00014173  00000-0  11920-2 0  9993
2 64307  70.0016 132.0151 0003186 269.3507  90.7287 14.98368699 45330
Epoch: 2026-04-03T12:26Z
TLE epoch observation values (Epoch: 2026-04-03T12:26:35.019Z)
Latitude
-0.00001°
Longitude
113.51775°
Altitude
574.389 km
Speed
7.574 km/s
True Right ascension
08h 48m 03s
True Declination
0° 00' 00"
Sunlit
Object was in full shadow at epoch
Visualization orbit readout
Latitude
Unknown
Longitude
Unknown
Altitude
Unknown
Speed
Unknown
Apparent Right ascension
Unknown
Apparent Declination
Unknown
Sunlit
N/A
Visualization observer readout
Local Sidereal Time
14:59:08
Azimuth
Unknown
Elevation
Unknown
Doppler factor
Unknown
Orbital elements
Apogee altitude
572.098 km
Perigee altitude
567.671 km
Semi-major axis
6,948.021 km
Eccentricity
0.00032
Inclination
70.0016°
RAAN
132.0151°
Arg. of periapsis
269.3507°
True anomaly
90.76521°
Mean anomaly
90.7287°
Eccentric anomaly
90.74695°
Mean motion
3.74758 °/min
Orbital period
96.06 mins
BSTAR
0.001192
Loading maneuver chart data...
Computing Atmospheric mass density...
Loading historical data...
Loading historical data...
Loading historical data...
Loading historical data...
Loading historical data...
Loading historical data...
Loading historical data...

Documentation

Showing up to 5 results
|